Find Qianfan 05-07

NORAD ID: 63165 Int'l Des: 2025-046 Owner: YUANX Country: CN Constellation: spacesail operational
LEOCIRCULARPOLAR

現在のビュー

3D地球を読み込み中...

Qianfan 05-07について

説明を読み込み中...

次回通過

Passes for default location (London). Set your location on the main map for personalized predictions.

高度履歴

Loading altitude history...

軌道要素

1 63165U 25046G 26146.58158155 .00000084 00000-0 11172-3 0 9992
2 63165 88.9695 303.0143 0015023 19.6043 340.5683 13.51007408 69638
Epoch: May 26, 2026 • Age: 8 hours

現在のステータス

高度 1091.4 km
速度 7.30 km/s
衛星直下点 -31.82°S, 92.55°W
打ち上げ日 Mar 11, 2025
運用期間 1.2 years
タイプ internet

技術仕様

分類 Payload
質量 267.00 kg
乾燥質量 267.00 kg
総質量 267.00 kg
長さ 0.30 m
直径 3.00 m
スパン 10.00 m
形状 Box+pan
製造者 GESIH
バスタイプ Qianfan
フェーズステータス In Orbit
所有者/国 YUANX/CN

Most Searched